Home > Weather > Eskilstuna > Past weeks

Flag for Sweden Weather for the Past 2 Weeks in Eskilstuna, Sweden

Now
37 °F

Sunny.


Feels Like: 30 °F
Forecast: 39 / 42 °F
Wind: 10 mph from Southeast

Location: Vasteras / Hasslo

Current Time: Feb 8, 2016 at 9:35:19 AM

Latest Report: Feb 8, 2016 at 9:20 AM


Visibility: 10 mi

Pressure: 29.24 "Hg

Humidity: 87%

Dew point: 34 °F

Location of EskilstunaLocation

Historic Weather in Eskilstuna — Graph

°F

Eskilstuna Temperature Yesterday

Maximum temperature yesterday: 48 °F (at 1:50 PM)
Minimum temperature yesterday: 37 °F (at 5:20 PM)
Average temperature yesterday: 41 °F

High & Low Weather Summary for the Past Weeks

 TemperatureHumidityPressure
High48 °F (Feb 7, 1:50 PM)100% (Jan 25, 3:20 AM)30.12 "Hg (Jan 25, 3:20 AM)
Low21 °F (Feb 1, 7:50 AM)56% (Feb 5, 12:50 PM)28.85 "Hg (Feb 2, 2:50 AM)
Average36 °F84%29.44 "Hg
* Reported Jan 24 8:20 AM — Feb 8 8:20 AM, Eskilstuna, Weather by CustomWeather, © 2016

Note: Actual official high and low records may vary slightly from our data, if they occured in-between our weather recording intervals... More about our weather records

Advertising

Eskilstuna Weather History for the Previous 24 Hours

 ConditionsComfort  
Time TempWeatherWind HumidityBarometerVisibility
8:20 AM
Mon, Feb 8
39 °FScattered clouds.12 mph81%29.24 "HgN/A
7:20 AM37 °FPassing clouds.12 mph87%29.24 "HgN/A
6:20 AM39 °FPassing clouds.14 mph87%29.24 "HgN/A
5:50 AM39 °FPassing clouds.12 mph87%29.27 "HgN/A
5:20 AM39 °FPassing clouds.13 mph87%29.27 "HgN/A
4:20 AM37 °FPassing clouds.12 mph87%29.27 "HgN/A
3:50 AM39 °FPassing clouds.13 mph81%29.30 "HgN/A
3:20 AM39 °FPassing clouds.13 mph87%29.30 "HgN/A
2:50 AM41 °FPassing clouds.13 mph81%29.30 "HgN/A
2:20 AM37 °FChilly.10 mph93%29.30 "HgN/A
1:20 AM41 °FQuite cool.12 mph87%29.30 "HgN/A
12:50 AM41 °FPassing clouds.13 mph87%29.30 "HgN/A
12:20 AM41 °FPassing clouds.10 mph87%29.30 "HgN/A
11:50 PM
Sun, Feb 7
41 °FQuite cool.9 mph87%29.30 "HgN/A
11:20 PM39 °FPassing clouds.9 mph93%29.33 "HgN/A
10:50 PM41 °FPartly cloudy.12 mph87%29.33 "HgN/A
10:20 PM41 °FPassing clouds.13 mph87%29.33 "HgN/A
9:50 PM41 °FPassing clouds.15 mph87%29.33 "HgN/A
9:20 PM41 °FPassing clouds.13 mph87%29.33 "HgN/A
8:50 PM41 °FLight rain. Passing clouds.14 mph87%29.33 "HgN/A
8:20 PM39 °FLight rain. Overcast.13 mph93%29.33 "Hg5 mi
7:50 PM39 °FPassing clouds.8 mph93%29.33 "Hg6 mi
7:20 PM39 °FLight rain. Overcast.7 mph87%29.33 "HgN/A
6:50 PM39 °FLight rain. Overcast.9 mph87%29.33 "HgN/A
6:20 PM37 °FPassing clouds.8 mph93%29.33 "Hg6 mi
5:50 PM37 °FFog.10 mph93%29.33 "Hg5 mi
5:20 PM37 °FFog.9 mph87%29.36 "Hg6 mi
4:50 PM39 °FChilly.12 mph87%29.36 "HgN/A
4:20 PM39 °FChilly.12 mph87%29.36 "HgN/A
3:50 PM43 °FSunny.9 mph81%29.36 "Hg10 mi
3:20 PM43 °FSunny.12 mph81%29.39 "Hg10 mi
2:50 PM45 °FSunny.13 mph76%29.39 "Hg10 mi
2:20 PM46 °FSunny.9 mph76%29.39 "Hg10 mi
1:50 PM48 °FSunny.12 mph71%29.39 "Hg10 mi
1:20 PM46 °FSunny.13 mph76%29.42 "Hg10 mi
12:50 PM46 °FSunny.12 mph82%29.42 "Hg10 mi
12:20 PM46 °FSunny.10 mph82%29.45 "Hg10 mi
11:50 AM46 °FSunny.13 mph76%29.45 "Hg10 mi
11:20 AM45 °FSunny.15 mph81%29.45 "Hg10 mi
10:50 AM43 °FPartly sunny.13 mph87%29.47 "HgN/A
10:20 AM43 °FPartly sunny.14 mph87%29.47 "HgN/A
9:50 AM41 °FPartly sunny.13 mph93%29.47 "HgN/A
9:20 AM41 °FFog.13 mph93%29.47 "Hg5 mi
Weather by CustomWeather, © 2016

See weather overviewHow to use our weather pages